Radiation Dose at Monitoring Post of Fukushima Daini Nuclear Power Station
Date,Time,MP-1(microSv/h),MP-2(microSv/h),MP-3(microSv/h),MP-4(microSv/h),MP-5(microSv/h),MP-6(microSv/h),MP-7(microSv/h),Wind Direction,Wind Velocity(m/s),Rain
2020/01/06,00:00,0.184,0.164,0.280,0.259,0.255,0.141,0.086,northwest,2.0,No
2020/01/06,00:10,0.183,0.164,0.280,0.259,0.254,0.141,0.087,west-northwest,2.1,No
2020/01/06,00:20,0.184,0.165,0.279,0.259,0.253,0.142,0.087,northwest,1.9,No
2020/01/06,00:30,0.184,0.164,0.279,0.259,0.253,0.142,0.087,northwest,1.7,No
2020/01/06,00:40,0.184,0.164,0.279,0.260,0.255,0.141,0.087,northwest,1.5,No
2020/01/06,00:50,0.183,0.164,0.280,0.259,0.255,0.141,0.086,northwest,1.8,No
2020/01/06,01:00,0.184,0.165,0.279,0.259,0.255,0.141,0.087,northwest,1.5,No
2020/01/06,01:10,0.183,0.165,0.280,0.259,0.254,0.142,0.087,north-northwest,1.1,No
2020/01/06,01:20,0.183,0.164,0.279,0.259,0.254,0.141,0.088,northwest,1.8,No
2020/01/06,01:30,0.183,0.166,0.279,0.260,0.255,0.141,0.087,northwest,1.4,No
2020/01/06,01:40,0.183,0.164,0.280,0.259,0.255,0.142,0.087,northwest,1.7,No
2020/01/06,01:50,0.182,0.164,0.280,0.259,0.255,0.141,0.087,northwest,1.7,No
2020/01/06,02:00,0.184,0.165,0.280,0.259,0.254,0.142,0.086,northwest,1.5,No
2020/01/06,02:10,0.184,0.164,0.279,0.259,0.254,0.141,0.087,west-northwest,1.5,No
2020/01/06,02:20,0.184,0.164,0.280,0.260,0.254,0.142,0.087,north-northwest,1.0,No
2020/01/06,02:30,0.183,0.165,0.278,0.258,0.255,0.141,0.087,-,CALM,No
2020/01/06,02:40,0.184,0.165,0.279,0.259,0.254,0.142,0.087,-,CALM,No
2020/01/06,02:50,0.183,0.164,0.279,0.260,0.254,0.142,0.087,-,CALM,No
2020/01/06,03:00,0.183,0.164,0.279,0.259,0.255,0.141,0.087,north-northeast,0.7,No
2020/01/06,03:10,0.183,0.164,0.279,0.259,0.253,0.141,0.087,-,CALM,No
2020/01/06,03:20,0.183,0.163,0.280,0.258,0.254,0.142,0.086,-,CALM,No
2020/01/06,03:30,0.183,0.165,0.278,0.260,0.254,0.142,0.087,-,CALM,No
2020/01/06,03:40,0.183,0.164,0.281,0.259,0.254,0.142,0.087,east-northeast,0.8,No
2020/01/06,03:50,0.182,0.165,0.281,0.260,0.254,0.142,0.087,northeast,1.2,No
2020/01/06,04:00,0.184,0.164,0.280,0.260,0.254,0.142,0.087,north-northeast,1.7,No
2020/01/06,04:10,0.183,0.164,0.279,0.260,0.254,0.141,0.087,northeast,2.4,No
2020/01/06,04:20,0.184,0.164,0.279,0.258,0.254,0.142,0.087,north-northeast,2.8,No
2020/01/06,04:30,0.183,0.163,0.280,0.260,0.254,0.141,0.087,northeast,2.9,No
2020/01/06,04:40,0.184,0.165,0.280,0.260,0.255,0.141,0.087,north-northeast,3.2,No
2020/01/06,04:50,0.184,0.165,0.279,0.260,0.255,0.141,0.087,north-northeast,2.6,No
2020/01/06,05:00,0.184,0.163,0.279,0.259,0.254,0.141,0.087,north-northeast,2.1,No
2020/01/06,05:10,0.184,0.164,0.280,0.259,0.255,0.141,0.086,north,2.1,No
2020/01/06,05:20,0.184,0.165,0.280,0.259,0.254,0.141,0.088,north,1.8,No
2020/01/06,05:30,0.184,0.165,0.279,0.260,0.254,0.142,0.087,northwest,1.4,No
2020/01/06,05:40,0.183,0.164,0.280,0.260,0.254,0.142,0.087,northeast,1.4,No
2020/01/06,05:50,0.183,0.164,0.281,0.258,0.254,0.141,0.087,north-northeast,0.8,No
2020/01/06,06:00,0.184,0.164,0.280,0.257,0.254,0.142,0.087,north-northeast,1.3,No
2020/01/06,06:10,0.184,0.163,0.280,0.259,0.254,0.141,0.087,northwest,0.8,No
2020/01/06,06:20,0.183,0.164,0.280,0.260,0.254,0.141,0.086,northwest,1.0,No
2020/01/06,06:30,0.183,0.163,0.279,0.259,0.254,0.141,0.086,west-northwest,1.9,No
2020/01/06,06:40,0.183,0.164,0.279,0.260,0.254,0.141,0.086,west-northwest,2.1,No
2020/01/06,06:50,0.183,0.165,0.279,0.259,0.254,0.142,0.087,west,1.0,No
2020/01/06,07:00,0.183,0.164,0.280,0.259,0.254,0.141,0.087,west-northwest,2.5,No
2020/01/06,07:10,0.183,0.164,0.279,0.259,0.254,0.141,0.086,west,2.3,No
2020/01/06,07:20,0.184,0.165,0.279,0.259,0.253,0.142,0.086,northwest,2.3,No
2020/01/06,07:30,0.184,0.163,0.279,0.259,0.254,0.142,0.087,west-northwest,1.8,No
2020/01/06,07:40,0.183,0.164,0.279,0.259,0.253,0.142,0.087,north-northwest,2.9,No
2020/01/06,07:50,0.183,0.164,0.278,0.258,0.254,0.141,0.087,west-northwest,2.6,No
2020/01/06,08:00,0.184,0.164,0.279,0.257,0.253,0.142,0.087,west-northwest,1.8,No
2020/01/06,08:10,0.183,0.164,0.279,0.259,0.252,0.142,0.086,west,1.7,No
2020/01/06,08:20,0.183,0.164,0.278,0.258,0.253,0.141,0.087,west,1.2,No
2020/01/06,08:30,0.183,0.165,0.279,0.259,0.255,0.141,0.087,west-southwest,1.7,No
2020/01/06,08:40,0.183,0.163,0.279,0.259,0.255,0.141,0.087,west-southwest,0.7,No
2020/01/06,08:50,0.183,0.163,0.279,0.258,0.253,0.141,0.087,west-southwest,2.4,No
2020/01/06,09:00,0.183,0.164,0.279,0.259,0.255,0.141,0.087,west,4.1,No
2020/01/06,09:10,0.183,0.165,0.280,0.258,0.253,0.142,0.086,west-northwest,4.9,No
2020/01/06,09:20,0.183,0.164,0.279,0.258,0.254,0.140,0.087,west,7.0,No
2020/01/06,09:30,0.183,0.164,0.278,0.259,0.254,0.140,0.087,west-northwest,7.0,No
2020/01/06,09:40,0.182,0.164,0.278,0.258,0.254,0.141,0.086,west-northwest,4.8,No
2020/01/06,09:50,0.182,0.163,0.280,0.259,0.255,0.142,0.086,west-northwest,4.8,No
2020/01/06,10:00,0.183,0.163,0.279,0.259,0.255,0.141,0.086,west-northwest,7.8,No
2020/01/06,10:10,0.183,0.163,0.279,0.258,0.255,0.141,0.087,west,6.3,No
2020/01/06,10:20,0.183,0.162,0.278,0.260,0.252,0.141,0.087,west-northwest,6.8,No
2020/01/06,10:30,0.182,0.163,0.279,0.258,0.255,0.141,0.086,west,6.5,No
2020/01/06,10:40,0.182,0.163,0.279,0.259,0.253,0.142,0.086,west,6.4,No
2020/01/06,10:50,0.181,0.163,0.278,0.259,0.254,0.141,0.087,west,5.8,No
2020/01/06,11:00,0.183,0.164,0.279,0.259,0.253,0.141,0.086,west,7.5,No
2020/01/06,11:10,0.182,0.164,0.278,0.259,0.253,0.141,0.087,west,7.8,No
2020/01/06,11:20,0.184,0.163,0.278,0.257,0.254,0.140,0.086,west,8.1,No
2020/01/06,11:30,0.182,0.164,0.278,0.259,0.253,0.141,0.086,west-northwest,9.0,No
2020/01/06,11:40,0.182,0.164,0.279,0.259,0.254,0.141,0.087,west-northwest,7.3,No
2020/01/06,11:50,0.182,0.165,0.279,0.261,0.253,0.141,0.087,west,7.5,No
2020/01/06,12:00,0.182,0.164,0.278,0.259,0.255,0.142,0.087,west,7.0,No
2020/01/06,12:10,0.183,0.164,0.279,0.259,0.253,0.141,0.086,west-northwest,7.3,No
2020/01/06,12:20,0.183,0.164,0.277,0.257,0.256,0.141,0.087,west,5.7,No
2020/01/06,12:30,0.182,0.164,0.280,0.259,0.253,0.142,0.087,west-northwest,9.5,No
2020/01/06,12:40,0.182,0.164,0.278,0.258,0.254,0.142,0.086,west-northwest,11.1,No
2020/01/06,12:50,0.183,0.164,0.279,0.259,0.253,0.141,0.087,west,10.4,No
2020/01/06,13:00,0.183,0.164,0.280,0.259,0.255,0.141,0.086,west,12.5,No
2020/01/06,13:10,0.183,0.165,0.279,0.258,0.254,0.142,0.087,west-northwest,10.6,No
2020/01/06,13:20,0.183,0.164,0.279,0.259,0.255,0.142,0.087,west-northwest,9.2,No
2020/01/06,13:30,0.183,0.164,0.280,0.258,0.255,0.142,0.087,west-northwest,9.7,No
2020/01/06,13:40,0.184,0.164,0.279,0.261,0.255,0.142,0.087,west,9.7,No
2020/01/06,13:50,0.184,0.164,0.279,0.258,0.254,0.141,0.087,west-northwest,9.3,No
2020/01/06,14:00,0.183,0.164,0.280,0.258,0.255,0.141,0.087,west,10.3,No
2020/01/06,14:10,0.184,0.164,0.281,0.260,0.254,0.141,0.086,west,7.5,No
2020/01/06,14:20,0.184,0.165,0.279,0.260,0.254,0.141,0.086,west-northwest,8.9,No
2020/01/06,14:30,0.183,0.163,0.280,0.258,0.256,0.141,0.086,west-northwest,7.3,No
2020/01/06,14:40,0.184,0.164,0.280,0.262,0.255,0.141,0.086,west,7.7,No
2020/01/06,14:50,0.183,0.165,0.279,0.259,0.254,0.141,0.086,west-northwest,8.1,No
2020/01/06,15:00,0.183,0.164,0.279,0.260,0.256,0.142,0.087,west,8.4,No
2020/01/06,15:10,0.185,0.164,0.281,0.260,0.254,0.141,0.086,west,7.1,No
2020/01/06,15:20,0.183,0.164,0.279,0.260,0.255,0.142,0.087,west,6.0,No
2020/01/06,15:30,0.183,0.164,0.280,0.260,0.255,0.141,0.087,west,3.9,No
2020/01/06,15:40,0.184,0.164,0.278,0.259,0.254,0.140,0.086,west,5.1,No
2020/01/06,15:50,0.184,0.164,0.279,0.261,0.255,0.141,0.087,west-northwest,3.9,No
2020/01/06,16:00,0.183,0.165,0.279,0.259,0.254,0.142,0.087,west-northwest,5.2,No
2020/01/06,16:10,0.184,0.164,0.280,0.260,0.255,0.142,0.087,west-northwest,4.8,No
2020/01/06,16:20,0.183,0.164,0.279,0.260,0.255,0.141,0.086,west,5.7,No
2020/01/06,16:30,0.184,0.165,0.279,0.259,0.254,0.141,0.087,west,6.4,No
2020/01/06,16:40,0.185,0.164,0.281,0.259,0.255,0.140,0.086,west,6.2,No
2020/01/06,16:50,0.184,0.164,0.280,0.261,0.255,0.141,0.087,west-northwest,7.9,No
2020/01/06,17:00,0.184,0.164,0.279,0.259,0.254,0.142,0.086,west-northwest,7.3,No
2020/01/06,17:10,0.182,0.165,0.279,0.259,0.254,0.141,0.085,west-northwest,7.0,No
2020/01/06,17:20,0.184,0.165,0.280,0.259,0.254,0.142,0.087,west-northwest,6.2,No
2020/01/06,17:30,0.184,0.165,0.279,0.260,0.254,0.142,0.087,west-northwest,5.1,No
2020/01/06,17:40,0.183,0.164,0.280,0.260,0.254,0.141,0.086,west-northwest,5.8,No
2020/01/06,17:50,0.182,0.165,0.279,0.260,0.255,0.141,0.086,west-northwest,6.6,No
2020/01/06,18:00,0.184,0.164,0.281,0.259,0.255,0.141,0.087,west-northwest,6.2,No
2020/01/06,18:10,0.184,0.164,0.280,0.261,0.254,0.141,0.087,west-northwest,6.4,No
2020/01/06,18:20,0.182,0.164,0.279,0.259,0.255,0.141,0.086,west-northwest,5.9,No
2020/01/06,18:30,0.183,0.165,0.280,0.258,0.253,0.141,0.087,west,5.8,No
2020/01/06,18:40,0.184,0.164,0.280,0.260,0.254,0.141,0.087,west,4.1,No
2020/01/06,18:50,0.183,0.165,0.278,0.260,0.255,0.141,0.086,west-northwest,3.5,No
2020/01/06,19:00,0.183,0.165,0.279,0.261,0.254,0.141,0.086,west,2.1,No
2020/01/06,19:10,0.184,0.165,0.279,0.260,0.254,0.141,0.086,west-northwest,1.4,No
2020/01/06,19:20,0.184,0.164,0.279,0.260,0.254,0.142,0.087,north-northeast,0.7,No
2020/01/06,19:30,0.182,0.165,0.280,0.260,0.254,0.142,0.086,north-northwest,1.6,No
2020/01/06,19:40,0.184,0.165,0.279,0.260,0.253,0.141,0.087,north,1.6,No
2020/01/06,19:50,0.184,0.164,0.281,0.259,0.255,0.142,0.087,northwest,2.2,No
2020/01/06,20:00,0.184,0.164,0.279,0.259,0.255,0.142,0.086,west,2.9,No
2020/01/06,20:10,0.183,0.165,0.279,0.260,0.253,0.141,0.087,west-northwest,3.5,No
2020/01/06,20:20,0.184,0.164,0.280,0.259,0.254,0.141,0.087,west-northwest,2.9,No
2020/01/06,20:30,0.183,0.165,0.279,0.259,0.254,0.142,0.086,northwest,1.3,No
2020/01/06,20:40,0.183,0.164,0.279,0.261,0.255,0.141,0.087,northwest,1.5,No
2020/01/06,20:50,0.183,0.164,0.279,0.260,0.254,0.141,0.086,north-northwest,3.3,No
2020/01/06,21:00,0.183,0.164,0.280,0.261,0.254,0.140,0.087,northwest,4.5,No
2020/01/06,21:10,0.183,0.164,0.280,0.261,0.255,0.142,0.088,northwest,5.0,No
2020/01/06,21:20,0.183,0.165,0.281,0.260,0.254,0.142,0.087,northwest,4.6,No
2020/01/06,21:30,0.185,0.165,0.279,0.262,0.254,0.141,0.086,northwest,4.1,No
2020/01/06,21:40,0.185,0.164,0.280,0.260,0.253,0.142,0.087,northwest,3.8,No
2020/01/06,21:50,0.184,0.164,0.280,0.260,0.254,0.142,0.087,west-northwest,4.1,No
2020/01/06,22:00,0.183,0.164,0.280,0.260,0.254,0.141,0.087,northwest,4.5,No
2020/01/06,22:10,0.183,0.165,0.279,0.261,0.255,0.141,0.087,northwest,5.3,No
2020/01/06,22:20,0.183,0.165,0.279,0.261,0.256,0.142,0.087,west-northwest,6.8,No
2020/01/06,22:30,0.184,0.164,0.281,0.260,0.254,0.141,0.087,northwest,6.5,No
2020/01/06,22:40,0.184,0.164,0.281,0.260,0.253,0.141,0.087,northwest,6.4,No
2020/01/06,22:50,0.183,0.165,0.280,0.260,0.254,0.141,0.087,west-northwest,5.2,No
2020/01/06,23:00,0.183,0.166,0.281,0.261,0.255,0.141,0.087,northwest,5.6,No
2020/01/06,23:10,0.184,0.164,0.280,0.260,0.256,0.142,0.088,west-northwest,6.1,No
2020/01/06,23:20,0.184,0.164,0.280,0.260,0.255,0.143,0.087,northwest,6.2,No
2020/01/06,23:30,0.185,0.165,0.279,0.261,0.255,0.142,0.088,west-northwest,5.4,No
2020/01/06,23:40,0.183,0.164,0.280,0.260,0.254,0.140,0.087,west-northwest,5.5,No
2020/01/06,23:50,0.184,0.165,0.281,0.260,0.255,0.142,0.087,northwest,4.4,No
